Time,TemperatureF,DewpointF,PressureIn,WindDirection,WindDirectionDegrees,WindSpeedMPH,WindSpeedGustMPH,Humidity,HourlyPrecipIn,Conditions,Clouds,dailyrainin,SolarRadiationWatts/m^2,SoftwareType,DateUTC
2013-02-18 00:01:00,16.2,3.0,29.91,NNW,331,1.0,-999.0,56,-99.99,,,0.00,0,weatherlink.com 1.10,2013-02-18 05:01:00,
2013-02-18 00:16:00,16.2,3.0,29.91,North,360,5.0,-999.0,56,-99.99,,,0.00,0,weatherlink.com 1.10,2013-02-18 05:16:00,
2013-02-18 00:31:00,16.2,3.0,29.92,NNW,334,5.0,-999.0,56,-99.99,,,0.00,0,weatherlink.com 1.10,2013-02-18 05:31:00,
2013-02-18 00:46:00,16.2,3.0,29.93,NW,323,9.0,-999.0,56,-99.99,,,0.00,0,weatherlink.com 1.10,2013-02-18 05:46:00,
2013-02-18 01:01:00,16.2,3.0,29.94,NW,318,7.0,-999.0,56,-99.99,,,0.00,0,weatherlink.com 1.10,2013-02-18 06:01:00,
2013-02-18 01:16:00,16.3,3.0,29.94,NW,320,2.0,-999.0,56,-99.99,,,0.00,0,weatherlink.com 1.10,2013-02-18 06:16:00,
2013-02-18 01:31:00,16.2,3.0,29.95,NNW,344,1.0,-999.0,56,-99.99,,,0.00,0,weatherlink.com 1.10,2013-02-18 06:31:00,
2013-02-18 01:46:00,16.3,3.0,29.96,NNW,340,5.0,-999.0,56,-99.99,,,0.00,0,weatherlink.com 1.10,2013-02-18 06:46:00,
2013-02-18 02:01:00,16.3,3.0,29.96,NNW,348,4.0,-999.0,56,-99.99,,,0.00,0,weatherlink.com 1.10,2013-02-18 07:01:00,
2013-02-18 02:16:00,16.4,3.0,29.96,NW,305,5.0,-999.0,56,-99.99,,,0.00,0,weatherlink.com 1.10,2013-02-18 07:16:00,
2013-02-18 02:31:00,16.3,3.0,29.96,WSW,246,5.0,-999.0,57,-99.99,,,0.00,0,weatherlink.com 1.10,2013-02-18 07:31:00,
2013-02-18 02:46:00,16.3,3.0,29.96,NNW,329,3.0,-999.0,57,-99.99,,,0.00,0,weatherlink.com 1.10,2013-02-18 07:46:00,
2013-02-18 03:01:00,16.3,3.0,29.97,NW,326,4.0,-999.0,57,-99.99,,,0.00,0,weatherlink.com 1.10,2013-02-18 08:01:00,
2013-02-18 03:16:00,16.2,4.0,29.98,NNW,329,6.0,-999.0,58,-99.99,,,0.00,0,weatherlink.com 1.10,2013-02-18 08:16:00,
2013-02-18 03:31:00,16.2,4.0,29.98,NW,321,4.0,-999.0,58,-99.99,,,0.00,0,weatherlink.com 1.10,2013-02-18 08:31:00,
2013-02-18 03:46:00,16.1,4.0,29.99,NW,306,6.0,-999.0,58,-99.99,,,0.00,0,weatherlink.com 1.10,2013-02-18 08:46:00,
2013-02-18 04:01:00,16.1,4.0,30.00,WNW,290,7.0,-999.0,58,-99.99,,,0.00,0,weatherlink.com 1.10,2013-02-18 09:01:00,
2013-02-18 04:16:00,15.9,3.0,30.01,NNW,344,3.0,-999.0,58,-99.99,,,0.00,0,weatherlink.com 1.10,2013-02-18 09:16:00,
2013-02-18 04:31:00,15.9,3.0,30.02,West,281,3.0,-999.0,58,-99.99,,,0.00,0,weatherlink.com 1.10,2013-02-18 09:31:00,
2013-02-18 04:46:00,15.8,3.0,30.04,NW,323,4.0,-999.0,58,-99.99,,,0.00,0,weatherlink.com 1.10,2013-02-18 09:46:00,
2013-02-18 05:01:00,15.6,3.0,30.05,WNW,303,4.0,-999.0,58,-99.99,,,0.00,0,weatherlink.com 1.10,2013-02-18 10:01:00,
2013-02-18 05:16:00,15.5,3.0,30.05,NW,304,1.0,-999.0,58,-99.99,,,0.00,0,weatherlink.com 1.10,2013-02-18 10:16:00,
2013-02-18 05:31:00,15.5,3.0,30.06,North,5,0.0,-999.0,59,-99.99,,,0.00,0,weatherlink.com 1.10,2013-02-18 10:31:00,
2013-02-18 05:46:00,15.5,3.0,30.07,North,351,0.0,-999.0,58,-99.99,,,0.00,0,weatherlink.com 1.10,2013-02-18 10:46:00,
2013-02-18 06:01:00,15.5,3.0,30.07,North,355,2.0,-999.0,59,-99.99,,,0.00,0,weatherlink.com 1.10,2013-02-18 11:01:00,
2013-02-18 06:16:00,15.4,3.0,30.08,South,178,0.0,-999.0,59,-99.99,,,0.00,0,weatherlink.com 1.10,2013-02-18 11:16:00,
2013-02-18 06:31:00,15.6,4.0,30.09,WNW,291,0.0,-999.0,59,-99.99,,,0.00,0,weatherlink.com 1.10,2013-02-18 11:31:00,
2013-02-18 06:46:00,15.5,3.0,30.10,WSW,258,0.0,-999.0,59,-99.99,,,0.00,5,weatherlink.com 1.10,2013-02-18 11:46:00,
2013-02-18 07:01:00,15.8,4.0,30.12,NW,309,1.0,-999.0,59,-99.99,,,0.00,11,weatherlink.com 1.10,2013-02-18 12:01:00,
2013-02-18 07:16:00,15.9,4.0,30.12,WNW,302,0.0,-999.0,59,-99.99,,,0.00,21,weatherlink.com 1.10,2013-02-18 12:16:00,
2013-02-18 07:31:00,16.7,4.0,30.12,WSW,255,4.0,-999.0,58,-99.99,,,0.00,56,weatherlink.com 1.10,2013-02-18 12:31:00,
2013-02-18 07:46:00,17.6,4.0,30.12,NNW,330,7.0,-999.0,56,-99.99,,,0.00,105,weatherlink.com 1.10,2013-02-18 12:46:00,
2013-02-18 08:01:00,17.6,5.0,30.14,NW,318,3.0,-999.0,57,-99.99,,,0.00,160,weatherlink.com 1.10,2013-02-18 13:01:00,
2013-02-18 08:16:00,18.5,5.0,30.15,NNW,337,4.0,-999.0,56,-99.99,,,0.00,218,weatherlink.com 1.10,2013-02-18 13:16:00,
2013-02-18 08:31:00,19.0,5.0,30.15,North,5,3.0,-999.0,55,-99.99,,,0.00,274,weatherlink.com 1.10,2013-02-18 13:31:00,
2013-02-18 08:46:00,19.5,5.0,30.16,NW,306,2.0,-999.0,53,-99.99,,,0.00,316,weatherlink.com 1.10,2013-02-18 13:46:00,
2013-02-18 09:01:00,19.5,5.0,30.15,NW,321,10.0,-999.0,54,-99.99,,,0.00,360,weatherlink.com 1.10,2013-02-18 14:01:00,
2013-02-18 09:16:00,20.4,5.0,30.16,WNW,298,1.0,-999.0,52,-99.99,,,0.00,399,weatherlink.com 1.10,2013-02-18 14:16:00,
2013-02-18 09:31:00,21.1,5.0,30.16,NNW,341,4.0,-999.0,51,-99.99,,,0.00,439,weatherlink.com 1.10,2013-02-18 14:31:00,
2013-02-18 09:46:00,21.2,5.0,30.15,NE,41,3.0,-999.0,49,-99.99,,,0.00,471,weatherlink.com 1.10,2013-02-18 14:46:00,
2013-02-18 10:01:00,22.4,5.0,30.16,NNW,333,4.0,-999.0,48,-99.99,,,0.00,504,weatherlink.com 1.10,2013-02-18 15:01:00,
2013-02-18 10:16:00,23.1,6.0,30.16,WNW,288,4.0,-999.0,47,-99.99,,,0.00,531,weatherlink.com 1.10,2013-02-18 15:16:00,
2013-02-18 10:31:00,23.8,6.0,30.17,NNW,336,3.0,-999.0,46,-99.99,,,0.00,559,weatherlink.com 1.10,2013-02-18 15:31:00,
2013-02-18 10:46:00,24.0,5.0,30.17,North,5,4.0,-999.0,44,-99.99,,,0.00,584,weatherlink.com 1.10,2013-02-18 15:46:00,
2013-02-18 11:01:00,25.2,6.0,30.17,NNW,327,5.0,-999.0,44,-99.99,,,0.00,601,weatherlink.com 1.10,2013-02-18 16:01:00,
2013-02-18 11:16:00,25.8,5.0,30.17,NNW,340,5.0,-999.0,41,-99.99,,,0.00,619,weatherlink.com 1.10,2013-02-18 16:16:00,
2013-02-18 11:31:00,26.5,6.0,30.16,North,5,4.0,-999.0,42,-99.99,,,0.00,631,weatherlink.com 1.10,2013-02-18 16:31:00,
2013-02-18 11:46:00,27.6,7.0,30.16,WNW,300,3.0,-999.0,41,-99.99,,,0.00,640,weatherlink.com 1.10,2013-02-18 16:46:00,
2013-02-18 12:01:00,27.9,5.0,30.16,North,355,3.0,-999.0,38,-99.99,,,0.00,642,weatherlink.com 1.10,2013-02-18 17:01:00,
2013-02-18 12:16:00,28.9,6.0,30.16,NNW,340,2.0,-999.0,38,-99.99,,,0.00,643,weatherlink.com 1.10,2013-02-18 17:16:00,
2013-02-18 12:31:00,29.6,6.0,30.16,West,261,1.0,-999.0,37,-99.99,,,0.00,643,weatherlink.com 1.10,2013-02-18 17:31:00,
2013-02-18 12:46:00,30.0,5.0,30.15,NNW,346,4.0,-999.0,35,-99.99,,,0.00,635,weatherlink.com 1.10,2013-02-18 17:46:00,
2013-02-18 13:01:00,30.7,7.0,30.16,NNW,328,5.0,-999.0,36,-99.99,,,0.00,622,weatherlink.com 1.10,2013-02-18 18:01:00,
2013-02-18 13:16:00,30.4,6.0,30.15,NW,317,5.0,-999.0,36,-99.99,,,0.00,608,weatherlink.com 1.10,2013-02-18 18:16:00,
2013-02-18 13:31:00,30.6,6.0,30.14,NW,318,3.0,-999.0,35,-99.99,,,0.00,587,weatherlink.com 1.10,2013-02-18 18:31:00,
2013-02-18 13:46:00,31.2,7.0,30.14,WNW,283,9.0,-999.0,36,-99.99,,,0.00,568,weatherlink.com 1.10,2013-02-18 18:46:00,
2013-02-18 14:16:00,31.6,7.0,30.14,NNW,347,3.0,-999.0,35,-99.99,,,0.00,515,weatherlink.com 1.10,2013-02-18 19:16:00,
2013-02-18 14:31:00,31.8,8.0,30.14,NNW,327,8.0,-999.0,36,-99.99,,,0.00,483,weatherlink.com 1.10,2013-02-18 19:31:00,
2013-02-18 14:46:00,32.6,7.0,30.14,NNW,333,1.0,-999.0,34,-99.99,,,0.00,448,weatherlink.com 1.10,2013-02-18 19:46:00,
2013-02-18 15:16:00,34.0,8.0,30.14,NNW,331,5.0,-999.0,33,-99.99,,,0.00,371,weatherlink.com 1.10,2013-02-18 20:16:00,
2013-02-18 15:31:00,33.6,9.0,30.13,WSW,252,4.0,-999.0,35,-99.99,,,0.00,330,weatherlink.com 1.10,2013-02-18 20:31:00,
2013-02-18 15:46:00,33.3,9.0,30.15,West,260,1.0,-999.0,36,-99.99,,,0.00,281,weatherlink.com 1.10,2013-02-18 20:46:00,
2013-02-18 16:01:00,32.8,9.0,30.15,West,268,3.0,-999.0,37,-99.99,,,0.00,204,weatherlink.com 1.10,2013-02-18 21:01:00,
2013-02-18 16:16:00,33.8,10.0,30.14,WNW,301,2.0,-999.0,37,-99.99,,,0.00,176,weatherlink.com 1.10,2013-02-18 21:16:00,
2013-02-18 16:31:00,33.5,10.0,30.15,West,280,5.0,-999.0,37,-99.99,,,0.00,121,weatherlink.com 1.10,2013-02-18 21:31:00,
2013-02-18 16:46:00,33.0,9.0,30.15,WSW,257,4.0,-999.0,37,-99.99,,,0.00,46,weatherlink.com 1.10,2013-02-18 21:46:00,
2013-02-18 17:01:00,33.2,10.0,30.15,NW,319,3.0,-999.0,38,-99.99,,,0.00,33,weatherlink.com 1.10,2013-02-18 22:01:00,
2013-02-18 17:16:00,32.9,10.0,30.15,West,262,2.0,-999.0,38,-99.99,,,0.00,12,weatherlink.com 1.10,2013-02-18 22:16:00,
2013-02-18 17:31:00,31.9,9.0,30.15,West,278,0.0,-999.0,38,-99.99,,,0.00,0,weatherlink.com 1.10,2013-02-18 22:31:00,
2013-02-18 17:46:00,31.6,10.0,30.16,WNW,286,2.0,-999.0,40,-99.99,,,0.00,0,weatherlink.com 1.10,2013-02-18 22:46:00,
2013-02-18 18:01:00,31.4,9.0,30.16,WSW,250,3.0,-999.0,39,-99.99,,,0.00,0,weatherlink.com 1.10,2013-02-18 23:01:00,
2013-02-18 18:16:00,31.2,9.0,30.16,West,263,3.0,-999.0,40,-99.99,,,0.00,0,weatherlink.com 1.10,2013-02-18 23:16:00,
2013-02-18 18:31:00,30.9,10.0,30.17,WNW,282,0.0,-999.0,41,-99.99,,,0.00,0,weatherlink.com 1.10,2013-02-18 23:31:00,
2013-02-18 18:46:00,30.8,11.0,30.18,WNW,282,0.0,-999.0,43,-99.99,,,0.00,0,weatherlink.com 1.10,2013-02-18 23:46:00,
2013-02-18 19:01:00,30.3,10.0,30.18,WNW,282,0.0,-999.0,42,-99.99,,,0.00,0,weatherlink.com 1.10,2013-02-19 00:01:00,
2013-02-18 19:16:00,29.7,11.0,30.18,WNW,282,0.0,-999.0,46,-99.99,,,0.00,0,weatherlink.com 1.10,2013-02-19 00:16:00,
2013-02-18 19:31:00,29.3,12.0,30.17,WNW,282,0.0,-999.0,48,-99.99,,,0.00,0,weatherlink.com 1.10,2013-02-19 00:31:00,
2013-02-18 19:46:00,28.8,12.0,30.17,WNW,282,0.0,-999.0,49,-99.99,,,0.00,0,weatherlink.com 1.10,2013-02-19 00:46:00,
2013-02-18 20:01:00,28.3,12.0,30.17,WNW,282,0.0,-999.0,51,-99.99,,,0.00,0,weatherlink.com 1.10,2013-02-19 01:01:00,
2013-02-18 20:16:00,27.3,11.0,30.18,WNW,282,0.0,-999.0,51,-99.99,,,0.00,0,weatherlink.com 1.10,2013-02-19 01:16:00,
2013-02-18 20:31:00,26.9,13.0,30.18,WNW,282,0.0,-999.0,55,-99.99,,,0.00,0,weatherlink.com 1.10,2013-02-19 01:31:00,
2013-02-18 20:46:00,26.2,12.0,30.18,WNW,282,0.0,-999.0,56,-99.99,,,0.00,0,weatherlink.com 1.10,2013-02-19 01:46:00,
2013-02-18 21:01:00,25.8,13.0,30.18,WNW,282,0.0,-999.0,59,-99.99,,,0.00,0,weatherlink.com 1.10,2013-02-19 02:01:00,
2013-02-18 21:16:00,24.9,14.0,30.18,WNW,282,0.0,-999.0,63,-99.99,,,0.00,0,weatherlink.com 1.10,2013-02-19 02:16:00,
2013-02-18 21:46:00,24.4,14.0,30.18,WNW,282,0.0,-999.0,64,-99.99,,,0.00,0,weatherlink.com 1.10,2013-02-19 02:46:00,
2013-02-18 22:01:00,24.4,13.0,30.18,WNW,282,0.0,-999.0,61,-99.99,,,0.00,0,weatherlink.com 1.10,2013-02-19 03:01:00,
2013-02-18 22:16:00,25.0,14.0,30.18,WNW,282,0.0,-999.0,64,-99.99,,,0.00,0,weatherlink.com 1.10,2013-02-19 03:16:00,
2013-02-18 22:31:00,24.6,14.0,30.18,WNW,282,0.0,-999.0,63,-99.99,,,0.00,0,weatherlink.com 1.10,2013-02-19 03:31:00,
2013-02-18 22:46:00,24.4,15.0,30.18,WNW,282,0.0,-999.0,67,-99.99,,,0.00,0,weatherlink.com 1.10,2013-02-19 03:46:00,
2013-02-18 23:01:00,23.8,15.0,30.18,WNW,282,0.0,-999.0,69,-99.99,,,0.00,0,weatherlink.com 1.10,2013-02-19 04:01:00,
2013-02-18 23:16:00,23.7,15.0,30.19,WNW,282,0.0,-999.0,68,-99.99,,,0.00,0,weatherlink.com 1.10,2013-02-19 04:16:00,
2013-02-18 23:31:00,23.5,14.0,30.19,WNW,282,0.0,-999.0,67,-99.99,,,0.00,0,weatherlink.com 1.10,2013-02-19 04:31:00,
2013-02-18 23:46:00,23.7,15.0,30.20,WNW,282,0.0,-999.0,69,-99.99,,,0.00,0,weatherlink.com 1.10,2013-02-19 04:46:00,